sat.trackr.live / text

‹ back to catalog

STARLINK-1319

NORAD 45379 · 2020-019V

PAYLOAD ACTIVE UNKNOWN

§ Identity

Operator
Country
US
Launch date
2020-03-18
Launch site
AFETR
Launch vehicle
Mass (kg)
RCS (m²)

Purposes: comms

External: N2YO · Heavens-Above · Gunter

§ Orbital elements

Epoch: 2026-09-13T03:37:16.520160Z

Period
89.09 min
Inclination
53.0229°
Eccentricity
0.0006981
Mean motion
16.16328072 rev/d
Perigee alt
224.9 km
Apogee alt
234.2 km
Semi-major
6,607.7 km
B*
5.8965e-4
RAAN
267.9033°
Arg perigee
30.3681°
Mean anomaly
329.7759°
Rev number
35,990

§ Raw data

STARLINK-13191 45379U 20019V   26256.15088565  .00880490  50896-3  58965-3 0  99952 45379  53.0229 267.9033 0006981  30.3681 329.7759 16.16328072359900

JSON: /api/v1/satellites/45379 · /tle

For live sub-satellite position, see the globe view (requires WebGL).

§ Visibility from observer

Set your observer location to see the next 7 days of passes ≥ 10°. The values pass through the URL so the page stays shareable.

No JS? Fill the form by hand. The geolocation button needs JavaScript.